Change the Weather History Date:

Sunday, September 29, 2013

  Actual Average Record
Temperature  
Mean Temperature 45 °F 45 °F  
Max Temperature 63 °F 63 °F 78 °F (2010)
Min Temperature 27 °F 27 °F 11 °F (1999)
Degree Days  
Heating Degree Days 20 20  
Month to date heating degree days 325 437  
Since 1 July heating degree days 426 730  
Cooling Degree Days 0 0  
Month to date cooling degree days 5 0  
Year to date cooling degree days 89 35  
Moisture  
Dew Point 29 °F    
Average Humidity 60    
Maximum Humidity 92    
Minimum Humidity 27    
Precipitation  
Precipitation 0.00 in 0.03 in 0.20 in (1991)
Month to date precipitation 0.83 0.76  
Year to date precipitation 3.83 5.42  
Sea Level Pressure  
Sea Level Pressure 29.98 in    
Wind  
Wind Speed 8 mph (West)    
Max Wind Speed 33 mph    
Max Gust Speed 51 mph    
Visibility 10 miles    
Events      
T = Trace of Precipitation, MM = Missing Value Source: NWS Daily Summary

Daily Weather History Graph

Daily Weather History Graph

Search for Another Location

Airport or City:

Trip Planner

Search our weather history database for the weather conditions in past years. The results will help you decide how hot, cold, wet, or windy it might be!

Date:

Astronomy

Sep. 29, 2013 Rise Set
Actual Time 7:15 AM MDT 7:04 PM MDT
Civil Twilight 6:47 AM MDT 7:32 PM MDT
Nautical Twilight 6:14 AM MDT 8:05 PM MDT
Astronomical Twilight 5:41 AM MDT 8:38 PM MDT
Moon 1:54 AM MDT (9/29) 4:08 PM MDT (9/29)
Length of Visible Light 12h 45m
Length of Day
11h 49m
Waning Crescent, 26% of the Moon is Illuminated
Sep 29
Waning Crescent
Oct 4
New
Oct 11
First Quarter
Oct 18
Full
Oct 26
Last Quarter

Hourly Weather History & Observations

Time (MDT) Temp. Windchill Dew Point Humidity Pressure Visibility Wind Dir Wind Speed Gust Speed Precip Events Conditions
12:53 AM 33.1 °F 27.7 °F 30.0 °F 89% 30.09 in 10.0 mi ENE 5.8 mph - N/A   Clear
1:53 AM 32.0 °F - 28.9 °F 88% 30.09 in 10.0 mi Calm Calm - N/A   Clear
2:53 AM 30.9 °F 24.3 °F 28.0 °F 89% 30.08 in 10.0 mi ENE 6.9 mph - N/A   Clear
3:53 AM 30.9 °F 25.2 °F 28.9 °F 92% 30.05 in 10.0 mi ENE 5.8 mph - N/A   Clear
4:53 AM 28.9 °F 21.1 °F 27.0 °F 92% 30.04 in 10.0 mi ENE 8.1 mph - N/A   Clear
5:53 AM 30.0 °F - 27.0 °F 88% 30.02 in 10.0 mi Calm Calm - N/A   Clear
6:53 AM 28.0 °F 24.2 °F 25.0 °F 88% 30.05 in 10.0 mi NE 3.5 mph - N/A   Clear
7:53 AM 28.9 °F - 26.1 °F 89% 30.07 in 10.0 mi Calm Calm - N/A   Clear
8:53 AM 37.9 °F - 30.9 °F 76% 30.05 in 10.0 mi Calm Calm - N/A   Overcast
9:53 AM 41.0 °F - 30.9 °F 67% 30.05 in 10.0 mi Calm Calm - N/A   Scattered Clouds
10:53 AM 46.0 °F - 30.0 °F 54% 30.01 in 10.0 mi Calm Calm - N/A   Overcast
11:53 AM 55.0 °F - 28.9 °F 37% 29.96 in 10.0 mi SSW 9.2 mph - N/A   Mostly Cloudy
12:20 PM 59.0 °F - 26.6 °F 29% 30.06 in 10.0 mi West 23.0 mph 29.9 mph N/A   Scattered Clouds
12:53 PM 60.1 °F - 28.0 °F 30% 29.91 in 10.0 mi West 19.6 mph 27.6 mph N/A   Partly Cloudy
1:53 PM 62.1 °F - 28.9 °F 29% 29.88 in 10.0 mi West 21.9 mph 31.1 mph N/A   Partly Cloudy
2:53 PM 59.0 °F - 28.0 °F 31% 29.88 in 10.0 mi West 20.7 mph 31.1 mph N/A   Scattered Clouds
3:53 PM 57.9 °F - 27.0 °F 31% 29.88 in 10.0 mi West 20.7 mph 50.6 mph N/A   Overcast
4:53 PM 54.0 °F - 28.0 °F 37% 29.94 in 10.0 mi West 26.5 mph 36.8 mph N/A   Overcast
5:53 PM 53.1 °F - 28.9 °F 40% 29.94 in 10.0 mi West 23.0 mph 27.6 mph N/A   Overcast
6:53 PM 51.1 °F - 30.9 °F 46% 29.96 in 10.0 mi WSW 6.9 mph - N/A   Overcast
7:53 PM 50.0 °F - 30.9 °F 48% 29.96 in 10.0 mi SSE 4.6 mph - N/A   Overcast
8:53 PM 48.9 °F - 32.0 °F 52% 29.92 in 10.0 mi South 6.9 mph - N/A   Overcast
9:53 PM 48.0 °F - 33.1 °F 56% 29.91 in 10.0 mi SSW 6.9 mph - N/A   Overcast
10:53 PM 45.0 °F 43.5 °F 32.0 °F 60% 29.90 in 10.0 mi NNW 3.5 mph - N/A   Mostly Cloudy
11:53 PM 44.1 °F - 33.1 °F 65% 29.85 in 10.0 mi Calm Calm - N/A   Overcast